Regional Weather Roundup
Issued by NWS Northern Indiana

Home | Current Version | Previous Version | Graphics & Text | Print | Product List | Glossary On
Versions: 1 2 3 4 5 6 7 8 9 10 11 12 13 14 15 16 17 18 19 20 21 22 23 24 25 26 27 28 29 30 31 32 33 34 35 36 37 38 39 40 41 42 43 44 45 46 47 48 49 50
000
ASUS43 KIWX 201610
RWRIWX

KIWX WEATHER ROUNDUP
NATIONAL WEATHER SERVICE NORTHERN INDIANA
1200 PM EDT MON OCT 20 2014

NOTE: "FAIR" INDICATES FEW OR NO CLOUDS BELOW 12,000 FEET WITH NO
SIGNIFICANT WEATHER AND/OR OBSTRUCTIONS TO VISIBILITY.

* THESE STATIONS ARE NOT UNDER NWS QUALITY CONTROL. THEY ALSO MAY NOT
  REPORT WEATHER SUCH AS PRECIPITATION OR FOG.

INZ001>027-201700-
NORTHERN INDIANA

CITY           SKY/WX    TMP DP  RH WIND       PRES   REMARKS
VALPARAISO     MOSUNNY   57  47  69 W7        29.85S
MICHIGAN CITY* PTSUNNY   54  45  71 W8        29.85R
LAPORTE*       MOSUNNY   58  50  73 NW7       29.85R
KNOX*          MOSUNNY   58  46  65 SW7       29.83S
SOUTH BEND     MOSUNNY   56  48  74 W9        29.84F
ELKHART*       PTSUNNY   54  48  82 W6        29.83F
GOSHEN         CLOUDY    55  48  77 SW8       29.83F
MONTICELLO*    PTSUNNY   56  49  76 W12       29.86F
LOGANSPORT*    CLOUDY    54  46  76 SW12      29.86F
ROCHESTER*     CLOUDY    59  50  72 SW13      29.85F
WARSAW*        CLOUDY    54  46  76 SW10      29.85F
ANGOLA*        PTSUNNY   52  48  87 SW5       29.84F
FORT WAYNE     LGT RAIN  52  49  89 SW8       29.87F
HUNTINGTON*    CLOUDY    53  49  88 SW8       29.86S
PERU/GRISSOM   LGT RAIN  55  54  94 W16       29.86F
MARION*        PTSUNNY   53  46  78 SW8       29.88F HAZE

$$
INZ028>050-201700-
CENTRAL INDIANA

CITY           SKY/WX    TMP DP  RH WIND       PRES   REMARKS
LAFAYETTE      CLOUDY    56  50  80 SW8G20    29.87F
KOKOMO*        CLOUDY    55  48  76 W13       29.88F
MUNCIE*        CLOUDY    55  47  74 SW13      29.89S
INDIANAPOLIS   MOSUNNY   58  48  69 SW17      29.88F

$$
MIZ043>046-050>051-056>058-064>065-071>073-077>080-201700-
SOUTHWEST LOWER MICHIGAN

CITY           SKY/WX    TMP DP  RH WIND       PRES   REMARKS
BATTLE CREEK   PTSUNNY   52  45  77 W13       29.83S
BENTON HARBOR  PTSUNNY   54  49  83 W10       29.83S
COLDWATER*     LGT RAIN  51  49  93 W9        29.82R
HILLSDALE*     LGT RAIN  52  48  86 SW7       29.81F
HOLLAND        CLOUDY    57  49  74 W5        29.82R
GRAND RAPIDS   CLOUDY    54  48  80 SW8       29.81F
KALAMAZOO      LGT RAIN  51  46  83 SW10      29.83S
STURGIS*       CLOUDY    50  48  93 SW6       29.83F
THREE RIVERS*  CLOUDY    53  50  89 SW8       29.83F

$$
OHZ001>008-015>018-024>025-201700-
NORTHWEST OHIO

CITY           SKY/WX    TMP DP  RH WIND       PRES   REMARKS
WAUSEON*       PTSUNNY   55  46  71 SW13G21   29.85S
DEFIANCE       CLOUDY    54  46  74 SW12      29.87S
FINDLAY        CLOUDY    54  48  80 S12       29.86F
TOLEDO EXPRESS CLOUDY    56  46  69 SW13      29.84F
TOLEDO METCALF MOSUNNY   57  46  66 SW17      29.85F
LIMA           CLOUDY    55  48  77 S9G20     29.87F

$$
AND FOR LAKE MICHIGAN COASTAL AND OPEN LAKE BUOY OBSERVATIONS

STATION/POSITION TEMP    WIND        PRES    VSBY  WAVE
                 AIR SEA DIR/SP/G                  HT/PER
                 (F)     (DEG/KT/KT) (MB)    (MI)  (FT/S)
CALUMET HARBOR    58     280/  2/  5 1009.5R
MICHIGAN CITY     53     240/ 10/ 11   N/A
SAINT JOSEPH      55                 1010.8R
SOUTH LAKE BUOY   54 55  320/ 10/ 14 1010.2S         2/ 5

$$
&&



USA.gov is the U.S. government's official web portal to all federal, state and local government web resources and services.